Other Public Products
Issued by NWS Grand Forks, ND

Home | Current Version | Previous Version | Graphics & Text | Print | Product List | Glossary On
Versions: 1 2 3 4 5 6 7 8 9 10 11 12 13 14 15 16 17 18 19 20 21 22 23 24 25 26 27 28 29 30 31 32 33 34 35 36 37 38 39 40 41 42 43 44 45 46 47 48 49 50
000
FPUS83 KFGF 240910
OPUFGF
PRAIRIE TO PINES WEATHER ROUNDUP
NATIONAL WEATHER SERVICE EASTERN NORTH DAKOTA/GRAND FORKS ND
400 AM CDT TUE MAY 24 2016

 **SATELLITE DATA USED TO AUGMENT SKY COVER AT AUTOMATED STATIONS**
 *****  WEATHER ACROSS EASTERN NORTH DAKOTA  *****

CITY           SKY/WX    TMP DP  RH WIND       PRES   REMARKS
GRAND FORKS    LGT RAIN  58  51  78 W22       29.76S
GRAND FORKS AF CLOUDY    57  52  82 W14       29.78F
GRAND CITY NWS   N/A     57 N/A N/A W21         N/A
BUXTON           N/A     61  54  77 NW16        N/A
DEVILS LAKE    CLOUDY    67  39  35 E14G21    29.76F
FARGO          MOCLDY    63  47  55 N15       29.78R
WAHPETON ARPT  SUNNY     55  45  67 N12       29.76R
$$

 *****  WEATHER ACROSS CENTRAL AND WESTERN NORTH DAKOTA  *****

CITY           SKY/WX    TMP DP  RH WIND       PRES   REMARKS
JAMESTOWN      CLOUDY    59  47  64 N6        29.79R
BISMARCK       PTCLDY    51  47  86 SW3       29.79R
MINOT          PTCLDY    51  41  68 SW5       29.78R
MINOT AFB      PTCLDY    45  39  79 SE3       29.77R
GARRISON         N/A     48  40  73 CALM      29.80R
WILLISTON      CLEAR     45  39  79 SW3       29.80R
DICKINSON      PTCLDY    38  33  82 S6        29.81R
HETTINGER      CLEAR     37  33  85 NW6       29.84R
$$

 *****  OTHER OBSERVATIONS NORTHEAST NORTH DAKOTA  *****

CITY           SKY/WX    TMP DP  RH WIND       PRES   REMARKS
WALHALLA       FAIR      55  46  71 W5        29.74S
LANGDON        FAIR      55  46  71 NW7       29.77R
CAVALIER       CLOUDY    59  50  72 SW9G20    29.76R
GRAFTON        FAIR      59  54  82 SW20G26   29.79R
CANDO          NOT AVBL
FORT TOTTEN      N/A     66  36  33 E7        29.95S
ROLLA          FAIR      50  45  81 SW8       29.79R
RUGBY          FAIR      50  41  71 NW6       29.78R
 ***** THE ABOVE OBSERVATIONS ARE NON NWS ARE NOT QUALITY
        CONTROLLED AND MAY MIS-REPORT RAIN FOR SNOW...
$$

 *****  OTHER OBSERVATIONS SOUTHEAST NORTH DAKOTA *****

CITY           SKY/WX    TMP DP  RH WIND       PRES   REMARKS
COOPERSTOWN    NOT AVBL
VALLEY CITY    PTSUNNY   57  54  88 NW8G16    29.83R
OAKES            N/A    N/A N/A N/A MISG        N/A
GWINNER        FAIR      59  52  77 NW21G28   29.79R
SHEYENNE NWR     N/A     59  50  72 NW6       29.95S
BUFFALO          N/A     59  50  70 W16         N/A
WYNDMERE       NOT AVBL
 ***** THE ABOVE OBSERVATIONS ARE NON NWS ARE NOT QUALITY
       CONTROLLED AND MAY MIS-REPORT RAIN FOR SNOW...
$$

  *****  WEATHER ACROSS NORTHERN MINNESOTA  *****

CITY           SKY/WX    TMP DP  RH WIND       PRES   REMARKS
FLAG ISLAND    CLOUDY    61  54  77 SE6       29.74R
WARROAD        CLOUDY    57  50  77 CALM      29.75R
ROSEAU         CLOUDY    57  48  72 S6        29.74S
HALLOCK        MOCLDY    55  50  82 CALM      29.74R
THF RVR FALLS  CLEAR     57  46  67 CALM      29.77R
HALSTAD        NOT AVBL
FOSSTON          N/A     55  48  76 CALM      29.78R
BAUDETTE       CLOUDY    53  50  89 E5        29.75R
WASKISH        CLOUDY    61  55  82 CALM      29.75S
CROOKSTON      PTCLDY    61  50  67 W12       29.79R
$$
  *****  WEATHER ACROSS CENTRAL AND WEST MINNESOTA  *****

CITY           SKY/WX    TMP DP  RH WIND       PRES   REMARKS
BEMIDJI        CLOUDY    61  52  73 SE13      29.77R
PARK RAPIDS    MOCLDY    62  51  67 NE9       29.79R
WADENA         CLOUDY    59  57  94 CALM      29.78R FOG
DETROIT LAKES  CLOUDY    59  54  82 SE3       29.78R
MOORHEAD       MOCLDY    63  52  67 N10G25    29.78R
FERGUS FALLS   PTCLDY    63  54  72 SE5       29.73R
ELBOW LAKE     FAIR      59  56  88 S3        29.77S
MORRIS MN      CLEAR     57  55  94 S5        29.76R
STAPLES        CLOUDY    61  59  94 CALM      29.78R
WHEATON        CLEAR     61  55  82 S5        29.77R
$$
  *****  WEATHER ELSEWHERE ACROSS MINNESOTA  *****

CITY           SKY/WX    TMP DP  RH WIND       PRES   REMARKS
DULUTH         CLOUDY    59  58  96 SE7       29.82R
INTRNTL FALLS  FOG       56  56 100 SE3       29.76S VSB 3/4
ELY            CLOUDY    57  55  94 S3        29.82R
CLOQUET        CLOUDY    59  57  94 CALM      29.81S
BRAINERD       CLOUDY    60  60 100 N3        29.80R
HIBBING        CLOUDY    55  55 100 CALM      29.80R
ALEXANDRIA     LGT RAIN  58  56  93 SW6       29.78R
SAINT CLOUD    CLOUDY    61  61 100 S6        29.77F
MINNEAPOLIS    PTCLDY    68  59  73 SW8       29.79F
$$

  *****  WEATHER ACROSS SOUTH DAKOTA  *****

CITY           SKY/WX    TMP DP  RH WIND       PRES   REMARKS
SIOUX FALLS    CLEAR     62  60  93 S8        29.80R
BROOKINGS      FOG       59  57  94 S9        29.78R VSB 1/2
WATERTOWN      PTCLDY    57  55  93 SE3       29.77S
HURON          CLEAR     57  56  96 CALM      29.75R
SISSETON         N/A     64  56  75 W13       29.74R
ABERDEEN       MOCLDY    61  47  59 N3        29.79R
MITCHELL       FOG       57  56  96 CALM      29.76R VSB<1/4
PIERRE         CLEAR     56  41  57 W7        29.75R
MOBRIDGE       CLEAR     53  45  74 CALM      29.76R
RAPID CITY     CLEAR     49  35  58 NW14      29.84S
$$

  *****  SOME WEATHER IN NEARBY STATES *****

CITY           SKY/WX    TMP DP  RH WIND       PRES   REMARKS
GLASGOW MT     MOCLDY    45  41  86 SW5       29.80R
GREAT FALLS MT CLOUDY    40  39  97 SW5       29.89S
CHEYENNE WY    PTCLDY    42  36  79 NW5       29.95F
SCOTTSBLUFF NE CLEAR     42  38  85 N5        29.89F
OMAHA NE       CLOUDY    60  58  92 E3        29.83F
DES MOINES IA  CLOUDY    66  62  87 W5        29.90S
DAVENPORT IA   MOCLDY    65  50  58 S10       29.92S
CHICAGO IL     CLOUDY    66  45  46 S10       29.95S
EAU CLAIRE WI  MOCLDY    63  61  93 SE3       29.83F
LA CROSSE WI   CLOUDY    67  59  75 CALM      29.85R
$$

  *****  SOME NATIONAL WEATHER *****

CITY           SKY/WX    TMP DP  RH WIND       PRES   REMARKS
LA GUARDIA NY  LGT RAIN  60  60 100 NW7       29.86S
RALEIGH NC     PTCLDY    51  49  92 SW5       30.04R
ATLANTA GA     PTCLDY    62  50  64 NE8       30.06R
NEW ORLEANS LA PTCLDY    71  64  78 E5        30.00S
OKLAHOMA CITY  CLOUDY    71  70  96 S15       29.82F
ALBUQUERQUE NM CLEAR     59  17  19 S7        29.95R
SALT LAKE CITY MOCLDY    52  42  69 CALM      29.80F
LOS ANGELES CA MOCLDY    58  52  80 W5        29.93S
BOISE ID       CLEAR     50  37  61 CALM      29.83S
SEATTLE WA     CLOUDY    58  49  72 N6        29.95S
$$

*** WEATHER ACROSS MANITOBA...SASKATCHEWAN AND ONTARIO ***
                ***ONTARIO***

CITY           SKY/WX    TMP DP  RH WIND       PRES   REMARKS
GERALDTON      NOT AVBL
THUNDER BAY    LGT RAIN  61  59  94 SW3       29.78R
SIOUX LOOKOUT  CLOUDY    48  48 100 VRB2      29.79R
TORONTO        CLEAR     55  36  47 NW6       29.97R
BIG TROUT LK   CLOUDY    36  34  93 NE3       29.96R
PICKLE LAKE    NOT AVBL
DRYDEN         MOCLDY    59  52  77 S8        29.77R
KENORA         CLOUDY    57  50  77 SE3       29.76R
$$
                *** MANITOBA***

CITY           SKY/WX    TMP DP  RH WIND       PRES   REMARKS
BRANDON        PTCLDY    43  36  75 W6        29.75R
DAUPHIN        PTCLDY    46  45  93 W6        29.75R
ISLAND LAKE    NOT AVBL
PILOT MOUND    NOT AVBL
THE PAS        CLOUDY    45  39  81 NE9       29.88R
THOMPSON       CLOUDY    36  34  93 NE7       30.01R
WINNIPEG       MOCLDY    52  46  82 SW6       29.74R
LYNN LAKE      CLOUDY    36  30  80 E6        29.99R
CHURCHILL      MOCLDY    30  25  80 NW6       30.08R WCI  24
GILLAM         CLOUDY    27  21  80 NE13      30.08R WCI  16
$$
                ***SASKATCHEWAN***

CITY           SKY/WX    TMP DP  RH WIND       PRES   REMARKS
ESTEVAN        PTCLDY    43  41  93 S7        29.76R
KINDERSLEY     CLOUDY    46  46 100 N10       29.76S
LLOYDMINSTER   CLOUDY    46  45  93 NE6       29.83R
PRINCE ALBERT  CLOUDY    48  45  87 E15G21    29.80S
REGINA         MOCLDY    43  43 100 S7        29.70R
YORKTON        MOCLDY    45  43  93 CALM      29.74R   C1F1C2F2C3F3C4F4C5F5C6F6C7F7C8F8C9F9CaFaCbFbCcFcCdFdCe!


USA.gov is the U.S. government's official web portal to all federal, state and local government web resources and services.